www.pogodaiklimat.ru

Погода и климат >> Архив погоды >> Беларусь >> Гродно


АРХИВ ПОГОДЫ в Гродно

Время (UTC), дата Ветер
(напр.,м/с)
 
Видим.   Явления Облачность Т
(С)
Тd
(С)
f
(%)
Тe
(С)
Тes
(С)
Комфортность P
(гПа)
Po
(гПа)
Тmin
(С)
Tmax
(С)
R
(мм)
R24
(мм)
S
(см)
06 15.09 ЮЗ 3 10 км 8/0
[Ci fib]
+10.2 +7.3 82 +8 +9 по сезону 1022.5 1004.5 +7.2
09 15.09 ЮЗ 8-11
{12}
12 км 8/3 600 м
[Sc Ac trans]
+14.2 +5.3 55 +12 +12 по сезону 1019.7 1002.0
12 15.09 ЮЗ 10-15
{15}
13 км 8/0
[Ac trans]
+17.0 +3.4 40 +16 +16 по сезону 1016.1 998.5
15 15.09 ЮЗ 10-15
{17}
13 км 8/0
[Ac trans Ci fib]
+18.0 +3.2 37 +17 +17 тепло 1012.3 994.8
18 15.09 ЮЗ 8-11
{15}
12 км 8/0
[Ac trans]
+16.5 +5.5 48 +15 +15 тепло 1010.2 992.7 +18.3
21 15.09 З 9-12
{13}
10 км 9/0
[Ac trans]
+16.0 +7.6 57 +14 +14 тепло 1008.8 991.4
00 16.09 З 8-11
{12}
10 км 9/0
[Ac trans]
+15.3 +9.0 66 +13 +13 тепло 1008.1 990.6
03 16.09 З 10-13
{15}
10 км 6/0
[Ac trans]
+13.8 +7.3 65 +11 +11 тепло 1008.2 990.6
06 16.09 З 8-11
{11}
11 км 8/4 1000 м
[Sc Ac trans]
+13.2 +3.6 52 +11 +11 тепло 1008.5 990.9 +12.4
09 16.09 З 8-13
{14}
12 км 8/6 1300 м
[Sc Ac trans]
+15.3 +3.8 46 +14 +14 тепло 1008.9 991.4
12 16.09 З 10-14
{14}
12 км 8/6 1200 м
[Cu med, cong Ac trans]
+16.9 +4.1 43 +15 +15 по сезону 1008.8 991.4
15 16.09 З 9-12
{15}
12 км 8/6 1300 м
[Sc Ci fib]
+15.9 +2.7 41 +14 +14 по сезону 1008.4 990.9
18 16.09 З 4
{12}
10 км 6/4 1000 м
[Sc Ac trans]
+13.8 +2.9 48 +13 +13 тепло 1008.4 990.8 +17.7
21 16.09 З 3 10 км {ливн. осадки} 4/3 1000 м
[Sc Ac trans]
+9.5 +5.3 75 +7 +7 по сезону 1008.4 990.5
00 17.09 З 4
{10}
10 км в посл. час ливневой дождь 9/8 1000 м
[Cb calv Ac trans]
+10.0 +5.0 71 +7 +7 по сезону 1007.9 990.0
03 17.09 З 5 10 км 3/3 600 м
[Sc]
+8.8 +5.3 79 +5 +5 прохладно 1007.5 989.6
06 17.09 З 4 11 км 8/0
[Ac trans Ci fib]
+9.4 +5.5 77 +7 +7 по сезону 1007.7 989.8 +7.7 0.0
09 17.09 З 7-10
{11}
13 км 8/4 600 м
[Sc Ac trans]
+12.6 +5.0 60 +10 +11 по сезону 1006.7 989.1
12 17.09 ЮЗ 6
{12}
12 км в посл. час ливневой дождь 8/6 900 м
[Cb calv Ac trans]
+11.5 +7.8 78 +9 +9 холодно 1004.9 987.2
15 17.09 З 7-10
{15}
13 км {ливн. осадки} 8/6 1000 м
[Sc Ac trans]
+12.8 +6.1 64 +10 +10 прохладно 1002.4 984.9
18 17.09 ЮЗ 3
{20}
10 км в посл. час ливневой дождь 8/6 1200 м
[Cb calv Ac trans]
+7.2 +6.1 93 +4 +4 холодно 1001.8 983.9 +15.3 2
21 17.09 З 3 10 км 8/4 1000 м
[Sc Ac trans]
+7.3 +5.9 91 +4 +4 холодно 1000.5 982.6
00 18.09 З 5
{11}
10 км в посл. час ливневой дождь 9/9 360 м
[Cb calv]
+6.4 +4.8 89 +2 +2 холодно 999.9 982.1
03 18.09 З 7-10
{10}
10 км {ливн. осадки} 9/9 330 м
[Sc]
+6.6 +4.8 88 +2 +2 холодно 999.9 982.1
06 18.09 З 6
{10}
10 км {ливн. осадки} 9/8 270 м
[St Ac trans]
+7.2 +5.1 86 +3 +3 прохладно 1001.7 983.8 +6.0 1
09 18.09 З 7-10
{10}
10 км в посл. час ливневой дождь 8/8 400 м
[St]
+9.3 +5.6 78 +5 +6 холодно 1004.5 986.7
12 18.09 СЗ 10-13
{14}
13 км {ливн. осадки} 9/8 700 м
[Sc Ac trans]
+13.3 +5.0 57 +10 +10 холодно 1006.8 989.2
15 18.09 СЗ 9-12
{14}
12 км в посл. час ливневой дождь 8/6 900 м
[Sc Ac trans]
+12.1 +7.1 71 +9 +9 прохладно 1008.9 991.3
18 18.09 З 6
{12}
12 км {ливн. осадки} 8/6 900 м
[Sc Ac trans]
+9.5 +5.6 77 +6 +6 прохладно 1011.0 993.0 +13.3 3
21 18.09 З 5
{10}
10 км 9/8 800 м
[Sc Ac trans]
+8.8 +6.7 87 +5 +5 прохладно 1012.8 994.8
00 19.09 З 4 10 км в посл. час ливневой дождь 8/6 800 м
[Sc Ac trans]
+7.4 +6.1 91 +4 +4 прохладно 1013.6 995.5
03 19.09 З 5 10 км 9/9 330 м
[Sc]
+7.4 +5.6 88 +3 +3 прохладно 1013.9 995.8
06 19.09 З 4 10 км 8/6 300 м
[St Ac trans]
+8.0 +5.8 86 +5 +5 по сезону 1015.9 997.7 +6.9 0.0
09 19.09 З 5 12 км 8/8 600 м
[Sc]
+11.6 +6.1 69 +9 +10 по сезону 1017.7 999.8
12 19.09 СЗ 4
{14}
10 км в посл. час ливневой дождь 8/6 900 м
[Cb calv Ac trans]
+11.9 +6.4 69 +10 +11 прохладно 1018.0 1000.1
15 19.09 СЗ 8-11
{11}
6000 м слаб. ливневой дождь 8/6 700 м
[Cb calv Ac trans]
+11.1 +7.1 76 +8 +8 прохладно 1018.3 1000.4
18 19.09 З 3
{13}
10 км {ливн. осадки} 3/3 600 м
[Sc]
+6.4 +4.6 88 +3 +3 очень
холодно
1019.0 1000.8 +13.0 6
21 19.09 З 4 10 км 9/9 1000 м
[Sc]
+5.8 +4.2 89 +2 +2 холодно 1019.4 1001.1
00 20.09 СЗ 6 10 км 4/4 1000 м
[Sc]
+5.5 +2.8 83 +1 +1 холодно 1019.7 1001.4
03 20.09 З 5
{10}
10 км 3/0
[Ac trans]
+5.2 +3.3 88 +1 +1 холодно 1019.7 1001.4
06 20.09 СЗ 6
{10}
10 км 4/3 600 м
[Sc Ci fib]
+6.4 +3.0 79 +2 +2 прохладно 1020.2 1002.0 +4.4
09 20.09 СЗ 8-11
{11}
12 км 6/6 800 м
[Sc]
+9.6 +3.0 63 +6 +6 прохладно 1021.1 1002.9
12 20.09 СЗ 8-11
{12}
13 км 8/6 1000 м
[Sc Ci fib]
+11.2 0.0 46 +8 +8 холодно 1021.5 1003.5
15 20.09 С 6
{11}
13 км 6/4 1000 м
[Sc Ci fib]
+10.4 +0.6 51 +8 +8 прохладно 1021.5 1003.5
18 20.09 СЗ 3 13 км 4/0
[Ci fib]
+5.9 +0.5 68 +3 +3 холодно 1022.4 1004.0 +11.6
21 20.09 З 3 12 км 6/0
[Ci fib]
+4.6 +1.0 77 +1 +1 холодно 1022.7 1004.3
00 21.09 ЮЗ 2 10 км 8/0
[Ci fib]
+3.8 +1.2 83 +1 +1 холодно 1022.0 1003.4
03 21.09 ЮЗ 2 10 км 9/6 800 м
[Sc Ac trans]
+5.6 +4.0 89 +3 +3 прохладно 1020.6 1002.3
06 21.09 ЮЗ 3 3400 м слаб. ливневой дождь 9/8 150 м
[Cb calv Ac trans]
+7.4 +6.5 94 +4 +4 прохладно 1019.2 1001.0 +3.3 0.0
09 21.09 З 4 4400 м слаб. ливневой дождь 9/8 150 м
[Cb calv Ac trans]
+11.3 +10.2 93 +9 +9 по сезону 1018.6 1000.7
12 21.09 З 6 6000 м в посл. час ливневой дождь 9/8 210 м
[Cb calv Ac trans]
+12.9 +11.8 93 +10 +11 прохладно 1017.7 999.9
15 21.09 З 8-11
{12}
10 км 8/6 400 м
[St Ac trans]
+14.2 +11.5 84 +12 +12 по сезону 1016.6 998.9
18 21.09 З 8-11
{13}
10 км 9/9 800 м
[Sc]
+13.7 +10.4 80 +11 +11 по сезону 1016.6 998.9 +14.4 0.5
21 21.09 З 6
{11}
10 км {ливн. осадки} 9/6 900 м
[Sc Ac trans]
+13.3 +10.9 85 +11 +11 по сезону 1016.7 998.9
00 22.09 З 3 10 км {ливн. осадки} 6/6 800 м
[Sc]
+12.4 +9.4 82 +11 +11 тепло 1017.1 999.3
03 22.09 З 4 10 км 3/0
[Ci fib]
+10.1 +8.0 87 +7 +7 по сезону 1016.9 999.0

 

Местоположение метеостанции Гродно (Гродненская область, Беларусь): широта 53.60 долгота 24.04 высота над уровнем моря 134 м.

В архиве по умолчанию представлена погода в Гродно за последнюю неделю. Архивные данные за месяц целиком и за предыдущие месяцы, начиная с января 2011 года, Вы можете получить, выбрав интересующий диапазон дат из раскрывающегося списка и нажав кнопку "Ввод!".


*Определитесь, кто Вы:
робот инопланетянин человек

Внимание! Время в таблицах - всемирное. Для получения местного времени необходимо прибавить поправку, которая равна 3 ч.

Смотрите также архив погоды в соседних городах и на ближайших метеорологических станциях:

Погода в Волковыске (Гродненская область, Беларусь) (55 км)
Погода в Варена (Литва) (80 км)
Погода в Белостоке (Польша) (80 км)
Погода в Алитусе (Литва) (90 км)
Погода в Лиде (Гродненская область, Беларусь) (91 км)
Погода в Сувалках (Польша) (93 км)
Погода в Мариямполе (Литва) (113 км)
Погода в Новогрудке (Гродненская область, Беларусь) (119 км)
Погода в Пружанах (Брестская область, Беларусь) (121 км)
Погода в Виштынце (Калининградская область, Россия) (127 км)

Пояснения к столбцам:

Ветер - указаны скорость ветра в м/с - средняя за 10 мин, порывы в срок и между сроками (в фигурных скобках) и направление, откуда дует ветер: С - северный, СВ - северо-восточный, В - восточный, ЮВ - юго-восточный, Ю - южный, ЮЗ - юго-западный, З - западный, СЗ - северо-западный.
Видимость - горизонтальная дальность видимости в метрах или километрах. При видимости от 1 до 10 км при отсутствии осадков обычно наблюдается дымка, при ухудшении видимости до 1 км и менее - туман. В сухую погоду видимость может ухудшаться дымом, пылью или мглою.
Явления - указаны атмосферные явления, наблюдавшиеся в срок или в последний час перед сроком; фигурными скобками обозначены явления, наблюдавшиеся между сроками (за 1-3 часа до срока); квадратными скобками обозначены град или гололедные отложения с указанием их диаметра в мм.
Облачность - указаны через наклонную черту общая и нижняя облачность в баллах и высота нижней границы облаков в метрах; квадратными скобками обозначены формы облаков: Ci - перистые, Cs - перисто-слоистые, Cc - перисто-кучевые, Ac - высококучевые, As - высокослоистые, Sc - слоисто-кучевые, Ns - слоисто-дождевые, Cu - кучевые, Cb - кучево-дождевые. Подробнее классификацию облаков см. в Атласе облаков (PDF).
T - Температура воздуха - температура, измеренная на высоте 2 м над землей.
Td - Температура точки росы - температура, при понижении до которой содержащийся в воздухе водяной пар достигнет насыщения.
f - Относительная влажность воздуха - влажноcть воздуха, измеренная на высоте 2 м над землей.
Te - Эффективная температура - температура, которую ощущает одетый по сезону человек в тени. Характеристика душности погоды. При расчете учитывается влияние влажности воздуха и скорости ветра на теплоощущения человека.
Tes - Эффективная температура на солнце - температура, которую ощущает человек, с поправкой на солнечный нагрев. Характеристика знойности погоды. Зависит от высоты солнца над горизонтом, облачности и скорости ветра. Ночью, в пасмурную погоду, а также при ветре 12 м/с и более поправка равна нулю.
P - Атмосферное давление - приведенное к уровню моря атмосферное давление.
Po - Атмосферное давление - измеренное на уровне метеостанции атмосферное давление.
Tmin - Минимальная температура - минимум температуры воздуха на высоте 2 м над землей.
Tmax - Максимальная температура - максимум температуры воздуха на высоте 2 м над землей.
R - Количество осадков - Количество выпавших осадков за период времени, мм. При наведении курсора мыши на число - период времени, за который выпало указанное количество осадков.
R24 - Количество осадков - Количество выпавших осадков за 24 часа, мм.
S - Снежный покров - Высота снежного покрова, см. При наведении курсора мыши на число - состояние снежного покрова и степень покрытия местности в баллах.